RH
8 8 7 8 6 5 5 6 5 6 6 6 5 6 6 6 7 8 8 9 9 9 10 31 19 23 50 92 94 89 88 91 88 87 82 76 74 67 71 76 85 94 94 92 97 99 97 97 94
9 9 8 7 7 6 7 7 7 5 6 6 6 5 6 6 8 8 9 8 10 11 12 12 12 11 56 44 73 79 74 69 84 93 98 95 78 70 72 77 84 97 96 96 92 97 97 98 96
8 9 8 8 7 8 7 10 9 8 6 6 6 6 5 6 7 7 7 8 8 10 12 14 15 24 50 36 17 9 24 25 19 61 88 97 73 94 92 85 82 84 87 85 91 99 95 95 91
9 8 8 7 8 10 10 9 9 8 9 10 10 8 7 8 7 8 8 8 8 9 10 14 14 22 38 46 24 11 9 11 18 22 46 81 68 70 81 95 94 77 78 82 81 92 94 95 91
10 10 10 9 9 10 12 11 11 11 10 10 9 9 8 9 10 10 10 9 9 9 9 11 14 15 16 26 41 36 32 23 14 11 10 24 82 84 88 73 84 88 68 60 73 81 88 96 95
14 14 13 13 13 12 11 12 11 13 13 13 10 11 11 11 10 11 12 12 12 12 10 10 12 14 15 17 19 20 31 34 25 17 12 10 12 22 65 60 61 55 67 70 58 58 69 71 84
16 16 14 15 17 17 15 14 13 12 13 14 14 12 14 14 12 12 13 14 14 14 14 13 13 13 15 15 16 17 21 22 22 22 24 20 17 14 12 27 42 20 12 23 37 52 82 82 80
17 15 13 16 20 20 22 20 17 15 14 14 14 14 17 16 16 15 16 16 16 15 15 15 16 15 13 12 13 12 13 16 19 20 18 19 22 24 24 22 22 19 17 17 16 13 18 22 25
15 11 14 17 22 21 22 22 21 19 16 18 17 18 18 18 16 15 16 18 18 18 16 14 14 15 15 14 13 12 11 11 11 11 10 11 11 12 13 16 19 26 28 26 30 28 22 22 21
17 15 18 20 21 20 22 21 21 21 21 20 20 22 23 18 16 16 17 17 18 20 18 16 14 13 14 14 14 14 14 11 10 10 9 10 10 10 11 11 11 11 11 12 12 12 14 15 17
16 14 19 19 20 20 21 21 21 22 21 26 24 21 22 22 21 20 18 18 18 20 23 24 20 16 13 13 14 13 12 13 12 12 12 12 12 13 12 12 12 11 11 11 11 12 11 11 10
10 14 15 17 19 18 19 21 22 22 27 24 24 23 25 26 25 24 22 21 20 22 25 27 28 27 23 17 14 15 14 12 13 15 17 19 20 20 21 22 20 17 16 15 15 14 14 13 13
15 19 17 17 18 18 17 19 20 26 30 29 30 28 27 28 27 27 27 26 26 28 30 33 34 32 31 28 24 21 19 18 17 17 16 16 18 19 21 23 23 23 21 19 18 17 17 16 15
20 20 20 19 22 19 18 19 16 32 30 28 28 29 28 29 30 31 32 33 34 34 36 38 40 40 38 36 34 31 29 28 26 24 23 23 24 23 23 24 25 22 20 20 23 24 21 19 19
27 27 28 27 27 23 23 18 19 33 33 34 35 33 32 34 35 37 37 38 40 41 43 47 52 51 48 46 43 40 38 37 36 34 34 33 33 33 31 30 27 26 25 24 23 24 24 22 21
46 42 42 48 43 34 30 24 33 41 40 40 40 39 39 40 41 42 44 46 48 49 51 52 58 57 54 50 48 45 44 44 43 42 39 36 33 32 33 33 31 29 28 28 28 28 27 25 23
38 30 36 46 55 53 49 40 45 48 49 47 48 50 49 50 51 52 54 54 55 62 66 60 60 57 53 52 53 54 53 54 52 49 44 40 39 37 35 33 33 31 31 31 30 28 27 26 24
12 12 15 22 46 44 40 38 50 52 51 54 57 65 67 68 69 66 65 65 65 71 78 80 76 71 64 60 59 58 59 61 60 54 48 48 50 51 49 48 47 46 46 43 41 41 41 38 32
16 16 16 15 16 12 14 9 21 39 36 53 58 65 68 64 71 79 80 75 74 87 92 90 88 84 87 75 68 67 65 61 61 59 56 57 61 57 51 46 45 45 47 49 49 48 47 42 41
31 29 28 28 28 26 23 20 19 19 18 31 50 59 63 70 85 81 77 78 84 92 94 91 87 87 83 80 81 76 72 71 69 66 64 66 68 63 59 56 53 53 54 55 55 55 57 54 52
33 34 34 34 34 32 29 20 26 29 32 32 32 34 35 49 76 94 97 96 92 92 88 90 80 79 85 86 86 88 89 88 80 78 78 76 76 74 70 65 62 65 66 69 66 60 58 58 54
15 24 24 23 23 14 15 12 12 20 35 40 43 43 41 36 43 63 78 80 84 92 100 98 92 83 86 89 100 100 100 99 97 95 90 88 87 83 82 82 80 74 78 80 76 68 65 60 55
15 14 15 17 19 15 13 21 10 13 22 35 48 51 47 44 41 41 42 50 67 82 93 100 100 100 100 100 100 98 96 99 100 100 100 97 98 95 97 98 96 96 93 89 86 85 82 78 73
16 16 16 15 16 15 14 16 12 12 16 28 42 69 81 73 86 91 89 89 90 97 100 100 100 100 100 100 99 98 99 99 97 96 95 96 99 100 100 100 100 99 99 98 92 84 83 81 78
23 22 22 21 19 18 16 19 15 16 26 54 56 82 100 99 100 99 98 97 97 96 94 95 98 100 100 99 99 99 99 99 99 98 97 98 98 99 99 99 100 100 100 100 100 98 93 86 76
25 25 27 34 33 33 34 35 42 48 44 50 62 100 100 100 97 99 100 100 100 99 89 76 66 79 94 100 100 100 99 99 99 99 99 99 98 99 100 100 99 100 100 99 100 100 96 91 86
32 38 53 99 100 99 74 88 99 80 67 84 98 100 100 100 100 100 97 95 92 91 94 99 100 96 94 95 100 100 100 100 100 100 100 100 100 100 100 100 100 100 99 100 99 97 96 94 91
42 67 99 100 100 100 85 83 85 70 65 94 100 93 78 86 88 96 100 100 99 100 100 100 100 100 100 100 100 100 100 100 100 99 100 100 100 100 100 100 100 100 96 95 95 92 90 89 85
50 53 82 100 100 100 99 93 96 97 100 100 99 97 96 100 100 100 100 100 100 100 100 100 100 100 100 100 100 100 100 97 89 80 93 100 100 98 97 96 97 98 94 89 86 84 79 73 68
41 44 48 51 84 100 100 91 100 100 100 100 100 100 100 100 100 100 100 100 100 100 100 100 100 100 100 100 94 91 77 63 54 61 72 77 92 94 93 93 91 91 89 85 78 75 72 67 64
Wind_Speed
14 13 14 19 21 18 15 13 15 17 18 19 19 18 17 17 16 17 15 15 15 15 14 15 18 20 15 8 14 15 13 14 16 18 20 22 24 23 21 21 20 21 24 23 20 20 18 16 20
19 18 17 17 15 11 13 18 20 20 20 21 20 21 20 18 19 21 20 18 17 19 16 16 18 16 10 10 10 14 14 13 14 17 15 17 20 23 19 21 23 27 27 27 28 25 21 20 20
23 23 23 21 15 11 11 18 22 22 22 23 24 25 22 19 23 23 22 21 20 21 20 18 16 12 9 11 13 14 16 15 15 16 17 18 19 14 13 15 18 16 18 25 29 31 27 23 25
26 27 27 24 19 16 18 19 21 20 22 23 24 25 23 24 25 25 23 23 22 21 21 20 20 15 16 14 13 12 10 14 15 16 17 15 14 18 17 15 13 11 12 14 15 21 26 29 25
27 27 29 24 21 23 25 23 23 22 22 23 25 21 22 22 25 24 22 21 21 21 21 21 20 19 19 20 18 16 17 15 17 17 17 18 15 12 18 18 17 11 14 15 15 14 16 19 24
28 29 28 23 21 25 28 27 29 26 26 26 26 25 23 23 26 26 25 23 21 21 21 21 22 21 20 22 23 24 22 22 22 22 20 20 21 18 14 18 20 19 16 19 15 15 16 16 16
29 29 27 24 22 23 27 30 30 31 29 29 29 29 25 26 28 29 27 26 26 25 24 24 25 24 24 23 26 28 26 26 26 26 24 24 26 23 24 24 21 26 24 23 21 22 17 16 18
31 33 27 25 23 23 28 33 33 34 30 30 31 30 28 30 29 30 29 28 28 28 28 28 28 29 29 29 28 29 29 29 29 27 26 27 27 27 26 28 28 27 27 26 25 27 25 26 26
34 36 29 27 29 28 31 35 36 34 32 31 30 32 32 33 33 32 31 30 30 30 29 30 31 31 32 32 32 33 32 32 32 31 29 29 29 29 28 29 30 31 30 30 30 30 28 28 28
36 37 32 31 33 34 33 34 37 36 33 28 30 34 36 35 33 34 33 33 32 31 30 31 33 33 33 33 33 34 33 33 33 33 32 32 31 31 29 30 30 30 32 32 33 32 32 31 32
40 38 35 35 36 37 37 36 37 36 32 30 33 37 36 34 34 36 36 35 33 33 32 31 32 34 35 35 34 34 34 34 33 33 33 33 33 33 33 33 34 34 34 34 34 32 32 32 30
40 38 39 39 40 41 39 39 38 38 32 34 35 38 36 36 37 37 37 36 35 35 36 35 35 36 35 36 37 37 36 36 36 35 35 35 34 34 34 34 35 36 37 37 37 37 36 36 34
38 36 38 39 39 40 41 41 43 36 35 36 38 39 41 39 39 39 39 37 38 38 39 39 39 39 38 38 38 39 40 40 41 41 40 41 40 40 40 39 38 38 37 37 37 38 38 38 37
38 36 37 38 38 38 39 41 41 34 37 39 40 41 42 43 41 40 39 40 39 40 41 41 41 41 41 41 40 41 42 44 44 44 44 44 44 44 44 44 43 43 42 41 40 39 40 40 40
42 42 42 39 39 42 43 42 42 41 40 42 43 44 45 45 44 41 42 41 41 41 42 42 42 42 43 43 44 44 45 45 45 46 46 46 46 46 46 47 46 46 46 46 47 47 47 46 45
46 48 47 44 44 47 48 46 45 43 44 44 45 45 45 44 43 42 42 43 42 43 44 44 43 43 43 45 46 47 47 47 47 47 47 47 47 48 48 47 46 47 48 49 49 49 50 51 51
45 47 48 49 49 49 52 53 51 52 50 50 49 47 47 46 44 44 46 47 46 47 49 46 45 45 46 48 49 49 50 51 51 51 50 49 49 48 48 47 46 46 47 47 47 48 49 51 52
43 43 44 46 46 49 52 52 54 55 54 51 49 46 46 47 47 50 51 50 49 49 50 51 51 48 46 49 51 52 53 54 54 53 53 51 50 48 48 48 48 48 49 50 51 51 51 52 54
42 44 45 44 46 48 48 48 48 49 52 50 48 46 47 50 51 53 53 51 51 54 54 54 53 53 55 54 54 54 54 56 56 56 54 54 52 50 48 48 49 49 49 50 52 53 54 55 55
45 45 45 46 48 50 51 48 49 48 51 53 54 55 56 56 54 54 54 54 53 57 58 57 57 59 58 57 59 60 59 58 58 58 57 56 56 56 55 54 54 54 53 54 55 55 56 57 57
44 45 45 47 48 50 53 51 51 51 52 51 50 52 54 54 55 55 56 59 60 58 56 58 59 61 64 66 63 64 63 63 61 60 59 60 60 60 59 59 58 57 57 58 58 58 59 59 59
44 45 47 48 51 52 54 58 54 52 52 53 54 55 53 53 55 57 58 59 61 62 62 63 64 65 67 65 64 65 68 66 65 65 63 63 63 63 62 64 65 63 61 61 61 61 62 62 62
47 47 49 51 54 54 53 58 52 52 55 56 55 54 52 51 50 50 53 54 56 57 60 62 63 66 69 70 70 69 69 69 68 68 67 66 67 70 71 68 66 67 67 66 66 66 66 67 67
51 52 54 56 56 55 50 55 48 50 54 57 56 52 47 46 43 43 45 48 51 52 54 57 61 63 66 68 67 68 71 72 73 74 76 77 74 70 68 68 69 68 67 69 70 71 71 71 71
56 57 59 60 58 57 53 56 49 48 52 53 54 51 41 38 39 43 46 49 51 54 55 58 59 59 61 63 64 67 70 69 70 71 69 69 70 67 66 67 68 69 70 71 73 73 73 73 74
59 58 57 60 59 58 56 56 53 51 49 52 51 51 51 52 49 46 46 47 51 54 57 60 61 62 63 64 65 64 64 64 64 65 64 64 66 67 68 68 70 71 71 72 74 75 75 76 77
57 55 52 48 50 53 55 54 53 51 49 46 48 57 57 55 50 50 48 39 40 45 49 55 59 59 61 63 65 66 65 63 60 60 61 63 65 67 69 69 70 72 74 76 77 78 79 79 80
59 54 49 51 54 57 58 57 56 58 54 51 52 53 55 57 55 38 37 42 46 51 52 54 55 58 60 58 57 56 55 55 58 61 62 64 64 64 66 69 71 74 76 78 79 79 79 79 79
62 60 57 57 54 47 50 49 52 54 45 42 38 43 50 40 38 42 51 49 52 56 58 58 61 62 61 57 57 56 57 62 70 69 67 70 70 70 71 71 72 74 76 77 78 78 79 79 79
59 57 55 56 60 62 60 63 54 43 42 43 46 41 41 44 47 48 47 50 55 58 60 62 56 60 61 61 64 65 71 76 76 72 70 69 69 73 75 73 73 74 74 75 75 75 74 73 73
Wind_Direction
287 283 268 263 269 274 272 273 272 271 268 268 268 271 269 272 277 275 272 272 275 280 276 287 297 291 286 264 229 242 243 242 249 255 257 246 235 239 250 253 247 236 236 233 238 245 243 254 232
281 280 277 273 281 289 267 262 264 264 272 273 273 272 267 266 269 271 273 273 274 278 280 277 289 297 253 264 236 233 242 248 253 252 243 238 234 232 238 247 245 240 240 239 235 241 249 247 243
279 278 279 281 288 298 271 264 263 263 262 262 265 266 268 266 263 265 271 273 272 273 277 277 280 282 250 264 268 257 245 244 252 252 251 225 228 221 219 236 243 236 239 243 236 236 243 242 239
279 280 281 282 288 282 275 267 271 271 267 266 264 264 267 265 266 267 267 266 267 267 271 271 274 261 258 258 261 256 255 252 250 250 254 259 208 211 203 210 197 216 222 228 223 225 230 234 235
279 280 283 287 285 282 273 272 270 271 268 268 268 271 267 271 275 273 271 265 263 262 262 266 267 266 264 256 260 258 257 253 252 252 243 241 263 248 215 222 219 218 211 223 215 213 215 222 234
277 279 280 284 277 272 272 273 272 270 269 270 271 270 271 268 267 270 270 271 266 262 262 261 262 259 256 255 257 258 252 256 266 260 256 254 240 240 246 245 240 228 227 228 224 231 225 225 225
272 273 279 279 276 272 272 269 268 266 268 268 269 269 271 267 264 269 272 272 273 270 265 259 258 258 256 251 252 255 254 253 253 256 256 254 257 249 236 234 246 252 243 239 236 232 229 230 227
270 273 277 281 278 271 270 266 263 264 264 267 268 272 271 269 267 268 272 274 273 271 269 265 257 254 253 252 251 251 251 251 250 249 252 253 255 257 254 254 248 242 252 249 245 244 237 240 236
269 273 276 277 271 264 260 262 266 267 269 268 269 271 267 266 266 267 270 271 271 269 266 264 265 262 258 253 250 249 249 250 250 250 250 250 251 253 253 252 254 260 256 256 255 253 249 248 250
268 270 279 272 272 270 267 266 268 270 269 270 268 268 263 264 268 268 268 269 272 272 272 271 267 265 263 261 257 253 249 247 247 248 248 250 251 252 251 251 251 249 253 256 255 253 254 251 249
271 276 274 274 270 268 268 268 267 270 270 264 259 260 265 268 265 264 265 267 272 275 274 269 266 265 263 263 262 260 256 251 247 245 243 243 243 245 248 250 250 252 251 251 253 252 251 251 250
275 276 275 274 273 271 268 267 269 268 272 266 264 264 262 262 263 263 265 268 270 270 270 268 267 265 262 260 261 261 260 258 255 255 257 258 256 254 254 253 249 246 248 251 251 251 252 253 254
275 277 277 276 274 275 276 275 272 272 269 265 262 261 262 261 262 265 266 266 265 266 266 266 264 265 265 263 261 259 257 257 257 257 255 255 258 259 259 260 259 256 253 252 252 252 251 251 252
278 276 275 275 276 275 273 272 274 275 267 264 263 262 262 262 263 263 264 263 264 263 264 265 267 267 266 264 262 260 259 259 258 257 256 256 255 253 254 256 257 256 257 257 257 257 257 256 256
277 277 275 274 275 272 269 268 272 270 266 265 264 262 261 262 264 264 263 266 266 266 265 265 265 265 264 264 262 260 260 258 258 257 257 257 257 256 254 253 254 253 254 254 256 257 257 257 257
272 273 275 275 272 271 271 272 270 269 270 268 266 265 265 267 267 269 269 267 266 267 266 265 266 266 265 264 263 262 261 261 260 260 259 259 259 260 258 256 254 253 253 253 254 255 255 255 256
276 276 274 272 273 273 271 270 271 272 269 268 267 266 267 267 267 265 263 263 262 262 262 263 263 264 264 263 261 260 261 260 260 259 258 258 258 257 257 256 255 253 254 254 252 252 253 254 254
277 278 275 275 272 270 269 271 271 271 269 266 265 265 265 265 264 262 261 261 261 261 262 260 260 260 261 261 259 257 257 258 259 258 258 259 256 254 253 253 254 256 255 257 258 258 257 257 256
278 277 277 278 274 273 271 270 269 269 272 270 267 267 266 264 263 261 260 258 257 260 260 260 259 259 258 255 255 255 256 256 256 256 256 256 254 253 253 255 256 256 256 256 255 255 256 256 255
277 277 278 278 277 277 275 274 272 269 268 268 269 268 267 265 263 262 260 258 257 259 259 260 260 260 257 255 256 257 257 257 256 256 255 254 254 256 257 259 259 260 260 260 259 256 253 252 253
278 278 277 278 276 276 277 277 275 275 276 275 272 270 268 265 262 259 259 258 259 260 259 256 257 259 260 258 257 260 260 257 256 255 255 255 255 257 259 260 261 262 262 259 257 255 254 253 252
278 276 277 279 278 279 278 279 279 280 281 279 276 272 269 264 261 260 259 259 259 258 257 258 259 261 262 262 260 262 259 256 256 256 256 256 256 258 259 261 263 261 260 257 255 254 254 253 254
276 277 275 273 272 273 278 281 284 286 281 278 276 273 269 266 264 261 258 257 256 256 255 255 256 255 256 258 261 261 258 257 255 255 256 257 259 262 263 262 259 262 259 257 257 258 259 259 259
280 275 272 271 270 271 276 277 280 277 276 278 278 279 274 268 263 258 255 255 255 256 255 255 255 255 257 259 260 259 258 258 259 259 259 262 262 262 261 261 261 260 259 259 259 260 260 261 261
279 277 277 274 274 274 272 273 276 273 275 277 276 276 272 270 260 254 253 255 256 257 257 257 257 257 257 257 259 258 259 260 260 260 259 260 258 257 258 260 261 262 261 260 261 261 261 262 263
280 279 278 279 279 276 274 274 277 277 274 277 274 274 276 281 277 268 261 258 257 256 258 259 259 259 258 258 260 261 263 264 263 262 260 258 260 262 263 263 262 263 263 263 263 264 265 266 265
281 278 276 268 267 269 273 275 278 279 282 277 271 273 275 281 275 273 280 276 263 255 260 261 260 260 260 260 262 263 265 263 262 262 263 263 263 261 261 261 263 264 264 264 265 265 265 265 265
280 277 272 271 275 277 277 279 282 282 282 275 271 272 275 275 275 268 261 261 263 255 264 258 259 260 259 257 255 256 259 265 271 269 271 270 268 266 265 266 264 264 264 265 266 268 268 268 267
282 279 275 273 271 273 276 276 281 284 274 265 254 260 272 265 243 240 261 261 252 252 259 258 255 255 257 257 259 262 269 280 287 288 279 276 273 271 270 269 268 268 269 269 270 270 271 272 272
283 282 278 274 272 271 271 271 274 265 262 259 255 254 251 256 258 259 259 256 252 252 252 250 257 252 258 269 276 280 282 283 282 277 274 272 271 270 271 271 272 272 272 272 272 271 271 272 271